GEFSCGP_500_meanwind_048.txt.gz
Wind_Speed
18 20 23 25 26 28 31 32 33 34 35 36 36 36 36 35 35 35 33 30 28 28 28 29 30 30 31 33 34 35 35 34 34 35 35 34 35 35 35 35 35 36 37 38
13 15 17 20 23 26 29 30 32 33 33 33 34 34 34 34 33 31 30 29 28 29 30 31 31 31 32 34 35 35 35 35 36 36 35 34 34 34 34 35 35 36 36 37
10 11 13 16 19 23 26 27 29 30 30 31 33 32 32 32 31 30 30 30 31 31 31 31 31 31 32 33 33 35 35 36 36 36 35 35 34 34 34 35 35 36 36 36
9 10 11 13 16 18 21 23 25 27 27 28 30 31 30 31 31 32 33 33 33 32 32 31 31 31 32 33 34 35 35 35 35 35 35 35 34 34 34 34 35 35 36 37
10 12 13 14 15 16 18 19 21 22 23 25 27 30 29 30 32 33 34 33 33 32 30 29 29 30 31 32 33 34 34 33 33 33 33 33 33 34 34 34 35 35 36 36
10 11 13 13 14 15 16 18 19 20 21 23 25 26 26 27 29 30 30 29 28 27 26 27 27 28 29 30 32 32 32 32 32 31 30 31 31 32 33 34 34 35 35 36
9 10 11 12 13 13 14 15 16 17 17 19 21 22 22 23 24 24 24 24 24 24 25 25 26 27 28 30 31 31 31 31 30 29 29 30 31 31 32 33 33 34 34 35
5 7 9 11 12 13 13 14 14 15 15 15 18 19 19 21 22 22 23 23 23 23 24 25 26 27 28 29 29 30 30 30 30 30 30 30 31 31 32 33 34 34 34 35
4 5 8 10 11 13 13 14 14 15 15 15 16 18 19 20 21 21 22 22 23 23 24 25 26 27 28 29 30 30 31 31 32 32 32 33 33 34 34 34 34 35 35 35
6 6 7 10 11 12 13 13 14 16 17 17 17 18 19 20 21 22 22 23 23 25 26 27 28 29 30 31 32 32 33 34 35 35 36 36 37 37 36 36 36 35 35 35
8 9 9 11 11 13 13 13 14 16 18 20 20 20 20 22 24 25 26 26 27 28 29 31 32 34 34 35 36 36 37 38 38 39 39 39 39 39 38 38 37 36 36 36
9 10 11 12 13 14 14 15 17 20 21 23 25 26 24 26 27 29 30 31 31 32 33 35 36 38 39 40 41 42 42 42 43 42 42 42 42 41 41 40 39 38 37 36
11 11 12 13 15 16 18 19 21 23 25 26 28 31 29 30 31 32 33 34 35 36 38 39 41 42 44 46 47 48 48 47 47 47 46 45 45 44 43 42 40 39 38 36
12 12 14 16 18 19 20 21 24 26 28 29 30 33 34 35 35 36 37 38 39 40 42 43 45 48 50 51 52 53 53 53 52 52 51 49 48 46 45 43 41 40 38 37
14 15 16 17 19 20 21 22 24 27 30 32 33 34 35 36 38 39 40 42 43 45 47 49 51 53 54 56 57 57 58 58 57 57 56 54 52 49 47 45 43 41 38 37
17 18 18 19 21 23 24 25 27 28 31 33 34 35 37 38 40 42 43 45 48 50 52 54 56 58 59 60 61 62 62 62 62 62 61 59 56 53 50 47 44 42 39 36
19 21 21 22 24 27 27 28 30 31 32 34 36 38 39 40 42 45 47 50 53 55 58 60 62 63 65 66 67 68 68 68 66 65 64 61 58 55 52 49 45 42 39 35
21 23 25 25 27 29 30 30 32 34 36 38 39 41 42 44 47 50 54 56 59 61 64 66 67 69 71 72 72 73 72 71 69 67 65 63 60 57 54 50 45 41 39 35
23 25 27 29 30 33 34 36 38 39 41 43 44 46 48 52 54 56 60 63 66 68 70 72 74 75 75 76 76 75 75 73 71 69 66 63 60 57 54 51 47 43 40 36
25 27 29 31 34 36 38 40 42 44 46 47 49 52 55 58 61 62 65 67 69 72 74 76 77 78 78 78 78 76 74 71 67 63 59 56 54 51 49 48 45 42 39 37
26 28 30 33 35 38 41 42 45 47 50 52 55 58 61 64 66 68 71 73 76 77 78 78 78 76 75 73 72 69 65 61 58 54 51 49 48 46 44 43 42 40 38 37
29 31 33 35 37 40 42 45 47 49 52 56 58 61 65 68 71 73 76 78 78 78 76 74 72 68 65 63 61 57 53 50 48 46 44 44 43 43 43 41 41 40 39 38
31 33 35 37 39 42 44 47 50 53 56 59 63 66 70 73 75 77 77 76 73 70 67 63 60 57 53 50 48 45 43 42 41 39 39 39 39 39 40 40 39 41 40 38
33 35 37 39 41 43 47 50 54 57 61 65 68 72 74 76 76 75 72 67 63 58 55 52 48 45 41 40 39 39 39 38 38 37 37 36 36 37 38 40 41 40 38 38
35 37 39 41 44 47 50 54 58 62 65 69 72 73 74 73 69 66 61 55 51 47 45 43 41 38 37 36 37 38 39 39 37 36 34 33 34 35 36 39 43 42 37 36
37 39 42 45 48 52 55 59 64 67 70 73 73 71 68 65 61 57 51 47 44 42 40 38 38 37 36 37 37 38 38 38 37 35 32 31 30 31 33 36 40 41 38 37

GEFSCGP_500_meanwind_054.txt.gz
Wind_Speed
14 14 16 19 21 24 26 27 28 33 34 34 35 36 37 37 37 36 35 34 33 33 33 33 33 33 34 34 35 35 34 34 33 32 31 30 28 27 25 24 24 24 25 25
9 10 12 14 17 19 22 23 25 30 32 33 35 36 37 37 36 36 35 33 32 33 33 33 34 34 35 36 36 36 36 35 34 33 31 29 27 24 23 22 22 22 23 24
4 6 7 9 11 12 15 16 20 24 28 28 31 29 32 34 34 33 33 32 32 32 33 33 35 36 37 37 37 36 36 36 34 31 29 28 26 23 22 21 21 22 22 23
5 5 6 6 7 7 9 15 17 19 19 18 23 18 24 29 29 31 31 31 32 32 33 34 35 37 37 37 37 36 36 35 33 31 29 27 25 24 23 23 23 23 23 23
7 7 7 8 9 9 11 13 14 15 16 16 18 16 18 27 26 27 29 30 31 32 33 34 35 36 36 36 36 35 34 34 33 31 29 28 27 26 25 25 24 24 24 25
8 9 9 10 11 11 12 13 13 13 13 12 16 15 15 23 22 23 25 26 26 27 28 30 31 32 33 34 34 34 34 34 33 32 32 31 29 28 27 27 27 26 27 27
7 8 9 9 8 11 11 10 9 10 10 11 17 15 17 19 18 19 20 22 23 24 25 27 29 31 32 33 35 35 36 36 35 35 34 33 32 31 31 30 30 29 29 29
4 5 8 8 7 8 10 10 10 11 11 12 17 17 19 17 17 18 19 21 22 24 26 28 29 31 33 35 36 37 37 38 38 37 37 36 35 34 34 33 32 32 31 31
4 6 9 8 8 9 9 9 11 13 13 14 13 18 19 18 19 20 21 23 24 26 28 29 31 33 35 37 38 39 39 40 40 40 39 38 38 37 37 36 35 34 34 33
5 5 8 9 9 9 10 11 12 12 12 13 14 17 20 20 20 23 25 26 28 30 32 33 35 37 38 40 41 42 43 43 43 43 42 42 41 40 39 39 38 37 36 36
6 6 7 10 10 11 13 13 13 14 15 16 16 19 23 24 25 27 29 31 33 35 37 38 39 40 42 43 44 45 46 46 46 46 46 45 45 44 43 42 41 40 39 38
7 8 9 11 12 13 14 15 16 17 19 21 22 27 25 27 29 31 33 35 37 39 40 42 43 44 45 47 48 48 49 50 50 50 50 50 49 48 47 47 46 45 43 41
9 10 11 12 17 19 18 18 19 21 23 24 25 31 31 32 33 34 36 38 39 41 42 44 45 46 48 49 50 51 52 53 54 55 55 55 55 54 53 52 51 49 47 45
12 12 13 14 16 19 21 21 22 24 26 27 29 33 35 36 38 39 40 41 43 44 45 46 47 49 50 52 54 55 56 58 59 60 60 61 60 59 58 58 56 53 52 50
14 14 16 17 19 21 22 23 25 27 28 30 32 36 39 40 41 43 44 45 46 47 48 50 52 53 55 57 59 61 62 63 65 66 66 66 66 65 64 63 62 60 57 54
16 17 18 19 21 23 24 25 27 29 31 34 36 39 39 42 43 44 46 47 49 51 53 55 57 60 62 64 66 68 69 70 71 72 72 72 72 71 70 69 67 64 61 59
17 18 19 21 22 25 26 27 30 31 33 35 38 40 42 43 44 46 49 52 54 57 59 62 64 66 68 70 72 73 74 75 76 77 77 77 77 75 73 71 70 67 64 61
18 20 21 23 25 26 28 29 31 33 34 36 39 41 44 47 49 52 55 58 60 63 65 68 70 72 74 75 76 77 77 77 77 77 76 76 76 76 74 72 70 68 65 62
20 22 23 25 27 30 29 31 33 35 37 39 42 45 48 51 54 57 61 64 66 69 71 73 74 74 74 73 72 72 70 69 68 68 67 67 66 66 65 65 64 63 62 60
22 23 25 27 28 30 34 35 37 40 42 45 48 50 54 57 60 63 66 69 71 73 73 72 70 68 66 64 62 59 57 55 53 52 51 51 50 50 50 50 51 52 53 53
24 25 26 28 31 33 35 37 39 42 47 50 53 56 60 63 66 68 70 72 72 70 66 63 59 55 52 50 48 46 44 43 41 39 38 36 36 37 38 38 39 40 42 44
25 27 28 30 32 36 38 40 42 45 49 53 56 60 64 67 69 70 70 69 65 60 55 51 48 45 42 40 39 37 35 35 34 32 31 30 30 30 30 30 31 32 34 37
26 28 30 31 33 37 40 43 46 49 53 57 61 64 68 69 70 68 66 60 55 50 46 43 41 38 36 35 34 33 31 31 30 30 29 29 28 27 26 26 26 27 29 32
28 30 32 34 36 39 43 46 50 54 58 62 65 68 69 68 66 62 57 51 46 42 40 39 37 35 34 34 34 33 32 32 31 31 30 30 28 26 25 25 26 26 28 30
31 33 35 38 40 43 46 50 54 58 62 65 67 67 66 63 59 55 49 44 40 37 37 36 36 35 35 35 34 34 34 34 34 33 32 32 29 28 26 26 26 26 26 29
33 36 39 41 44 47 50 54 58 61 64 67 68 66 61 57 53 48 43 40 38 37 37 37 36 37 37 37 36 36 36 36 35 35 33 31 29 28 27 26 26 27 28 29

GEFSCGP_500_meanwind_060.txt.gz
Wind_Speed
7 5 3 6 13 15 16 15 13 13 20 27 27 22 21 26 30 31 32 34 36 37 37 37 36 37 37 37 38 38 37 38 38 38 37 35 34 33 32 30 29 28 26 25
4 4 10 12 13 12 11 13 13 15 20 24 25 25 24 26 29 31 32 34 37 38 36 38 39 37 38 39 39 38 38 38 38 38 37 36 34 33 32 30 29 27 26 24
3 7 11 8 6 4 6 9 13 17 20 21 21 20 19 22 27 29 31 33 33 34 36 38 38 37 37 37 36 35 37 38 38 38 38 36 34 34 33 30 29 27 26 25
4 8 8 4 5 6 8 11 15 17 18 18 16 19 19 23 27 31 29 30 29 29 29 32 34 34 34 36 36 36 38 39 40 39 38 35 35 34 32 30 28 27 26 26
4 6 8 7 8 10 10 13 14 12 13 14 13 18 19 24 30 31 28 27 32 29 29 31 32 33 35 36 36 37 38 37 37 37 37 36 35 33 31 30 29 28 28 27
3 7 7 7 9 10 10 9 8 11 16 18 20 20 21 24 27 29 28 31 34 33 31 32 31 32 33 34 36 36 36 36 37 38 37 37 35 34 34 33 32 30 30 30
2 6 6 7 8 10 10 9 10 16 21 22 17 14 18 22 24 26 30 31 32 32 32 32 32 33 33 34 36 37 37 39 40 40 40 40 38 38 37 36 35 34 33 33
7 7 4 8 10 11 10 8 11 17 18 22 24 18 18 21 24 25 26 28 30 31 32 32 33 34 36 37 39 40 41 42 43 43 43 43 43 42 41 40 39 39 38 37
7 7 8 11 11 9 10 8 10 15 15 14 16 25 29 27 26 25 25 28 32 34 35 36 37 39 40 41 42 43 45 46 47 48 48 48 48 47 46 45 44 44 42 42
7 8 7 9 9 10 12 13 13 14 16 16 15 26 34 33 31 30 31 34 36 37 39 40 41 42 44 45 47 48 50 51 51 52 53 53 53 53 52 51 49 48 47 46
8 8 6 9 12 12 13 13 15 17 18 20 21 27 32 34 34 36 39 40 40 40 43 44 45 46 48 49 50 52 53 54 55 55 56 57 57 57 57 57 55 54 53 52
9 9 8 8 12 13 13 15 18 19 20 21 23 29 32 34 37 39 41 44 45 46 48 50 51 51 52 53 54 55 56 57 58 59 59 60 60 61 61 61 60 59 58 57
11 11 10 10 14 17 18 18 20 22 25 25 26 32 34 37 40 42 44 46 49 51 52 53 54 55 55 56 57 58 59 60 61 62 63 64 65 65 66 66 65 64 63 62
12 12 12 12 12 14 18 19 21 24 27 28 30 35 39 41 42 45 48 50 52 54 56 56 57 58 59 60 61 62 63 64 65 66 67 68 69 70 70 70 70 69 69 68
12 12 13 13 13 14 17 19 21 24 27 30 34 38 42 43 45 48 51 53 56 58 59 60 61 63 64 64 65 67 67 68 69 70 71 72 73 73 74 74 75 74 74 73
13 13 14 14 14 15 19 22 23 27 31 34 37 40 44 46 49 51 53 56 60 62 63 64 66 67 67 68 69 69 69 70 70 70 70 70 70 71 72 73 74 75 75 75
14 16 16 16 16 18 22 24 26 30 35 38 40 43 46 48 51 54 57 60 63 65 66 67 68 69 70 69 68 67 66 64 62 61 59 58 58 59 59 61 63 65 67 69
14 16 19 20 21 21 24 26 29 33 37 41 42 45 48 51 54 56 60 64 66 67 68 69 69 69 67 65 62 60 57 54 51 48 45 43 43 44 45 47 49 52 54 57
18 20 21 23 22 26 30 30 34 37 41 43 45 49 52 55 58 59 62 65 66 66 67 67 66 63 60 57 53 50 46 43 39 36 35 35 35 35 35 36 38 40 42 45
22 24 25 26 27 30 33 36 38 42 46 49 52 55 57 60 62 63 65 65 65 65 65 63 59 55 51 47 44 41 39 36 34 33 33 32 31 30 29 30 30 31 32 33
22 24 26 27 29 35 36 39 42 44 47 50 52 55 59 62 64 66 65 65 65 64 61 57 53 48 44 42 40 37 35 33 33 33 32 30 30 29 28 27 27 28 28 28
22 25 27 30 32 37 39 42 44 47 50 53 56 59 62 64 65 66 65 64 63 60 56 51 47 44 41 39 38 37 35 34 34 33 31 30 30 30 29 28 27 27 27 26
23 26 29 32 35 38 42 45 48 51 54 57 60 62 64 65 66 65 63 61 58 54 50 46 44 42 40 39 39 39 38 37 36 35 34 33 32 30 29 29 28 27 26 25
28 28 31 34 38 41 45 48 51 53 56 59 62 64 65 66 66 64 60 57 53 49 46 45 43 42 40 40 41 40 40 39 39 38 37 36 34 32 30 29 28 26 25 23
28 31 34 38 41 44 46 50 53 55 58 61 63 63 65 66 65 61 57 54 51 48 46 45 44 43 43 42 42 42 42 41 41 40 39 37 35 33 30 28 26 25 23 22
30 34 37 40 43 46 49 52 55 57 60 62 63 64 65 65 62 58 55 52 50 48 48 47 45 45 45 44 44 43 42 41 40 38 37 35 34 31 28 26 24 23 23 21

GEFSCGP_500_meanwind_066.txt.gz
Wind_Speed
13 13 14 13 12 11 11 12 13 13 14 14 15 18 21 24 26 29 31 33 35 37 39 40 38 37 38 39 39 39 37 34 31 31 31 29 27 29 29 28 27 28 27 27
12 13 11 9 9 9 10 13 16 18 19 19 19 23 25 29 30 31 33 35 37 38 39 40 39 38 38 38 36 33 31 30 32 33 29 28 29 28 29 28 28 28 28 28
11 9 7 7 9 11 13 16 18 21 22 23 24 26 29 32 33 34 34 35 36 35 37 38 37 36 36 37 35 33 31 30 30 30 30 29 30 32 29 29 29 29 28 28
9 9 8 7 8 10 12 16 18 20 23 24 25 26 28 32 34 34 34 33 33 34 34 35 35 35 34 33 32 32 30 30 30 31 32 32 33 33 32 31 29 29 28 27
9 9 7 6 6 8 10 12 14 17 20 22 22 25 25 28 31 33 33 33 32 32 32 32 32 32 32 31 31 31 31 31 32 33 34 33 33 33 33 33 32 31 29 30
7 7 7 5 5 7 10 11 12 14 16 18 19 22 22 23 26 28 30 32 30 31 30 30 30 32 33 33 34 34 33 34 34 35 35 35 36 36 36 36 36 35 34 34
5 5 6 7 6 7 10 11 11 11 13 15 18 20 19 21 22 22 22 25 27 26 27 29 31 33 35 36 36 37 37 38 39 39 40 40 40 40 41 40 40 40 40 39
5 4 5 5 6 8 9 11 12 13 14 15 16 18 19 21 23 23 24 25 25 26 27 29 33 36 38 39 40 41 42 43 44 45 45 46 46 46 45 45 45 45 45 44
7 5 5 5 7 9 11 12 14 16 17 18 19 19 20 23 24 26 28 28 27 27 32 35 36 39 41 42 44 45 46 47 48 49 50 51 51 51 51 51 51 50 50 49
9 8 8 8 9 11 14 16 17 19 20 21 22 22 24 25 26 29 31 32 33 35 38 40 43 45 46 47 49 49 50 51 52 53 54 54 55 55 56 56 55 55 54 54
10 10 9 10 11 13 15 16 17 19 20 22 25 27 27 28 31 33 35 37 40 42 44 46 48 49 51 52 54 54 55 55 56 56 57 57 58 58 59 59 59 59 59 59
10 10 11 12 13 14 16 17 18 19 21 24 27 30 31 33 35 38 40 42 44 46 48 50 52 53 55 57 58 59 60 60 60 60 60 60 61 61 62 62 62 63 63 63
10 11 11 12 13 15 18 19 19 20 22 25 29 32 34 37 39 42 44 46 48 50 52 54 56 57 59 60 61 62 63 64 64 65 65 65 65 64 65 65 64 65 65 66
10 11 11 12 14 17 18 20 20 21 24 27 30 33 36 39 42 44 47 49 52 54 56 58 60 62 63 64 65 65 66 66 67 67 67 66 65 65 64 64 64 64 64 65
10 11 12 14 16 18 19 20 21 23 25 29 32 35 38 41 43 46 49 52 54 57 59 61 64 65 66 66 67 67 67 67 66 65 63 62 61 60 59 58 59 59 61 62
10 11 12 14 17 18 18 19 21 23 26 29 33 36 39 42 45 48 51 54 57 59 61 63 64 66 67 67 67 66 65 64 61 58 56 54 52 51 51 51 51 51 51 53
10 12 13 14 16 18 17 19 22 26 28 31 35 38 41 44 46 50 53 57 59 61 62 63 65 66 66 65 63 61 58 55 52 50 47 45 44 43 42 41 41 41 42 42
11 13 14 16 18 18 19 23 27 30 33 35 38 42 45 48 50 52 56 58 60 61 62 63 65 64 62 59 57 55 52 49 46 44 42 40 39 37 35 35 35 34 34 34
13 16 18 20 23 24 25 28 32 35 37 40 43 45 48 50 52 53 56 58 59 61 63 64 63 60 57 54 53 51 48 46 43 42 40 38 37 36 35 34 32 31 30 29
17 18 20 23 25 27 29 32 35 39 41 43 46 49 51 54 57 57 57 59 61 63 63 62 59 56 54 52 51 49 47 45 43 41 39 37 36 35 34 32 31 30 29 28
18 20 22 24 27 29 32 35 37 40 43 45 49 52 55 57 59 59 60 61 62 62 61 58 56 54 53 51 50 48 46 44 42 40 39 37 36 35 34 32 31 30 29 28
20 22 24 26 29 31 34 37 40 43 46 49 52 54 56 57 58 59 60 61 61 60 58 57 55 53 52 51 49 47 44 43 42 41 39 37 35 35 34 33 31 30 29 28
20 22 25 27 30 33 36 40 43 46 48 51 53 55 57 58 58 59 60 60 60 58 56 55 54 52 50 48 46 44 42 41 41 39 37 35 34 34 33 32 31 30 29 28
21 23 25 28 31 34 38 41 43 45 48 51 54 56 57 58 59 59 58 59 58 56 54 53 52 49 47 45 44 42 40 39 38 35 33 32 32 32 32 31 30 28 28 27
22 24 27 29 32 34 37 40 43 46 49 52 54 56 57 57 58 58 57 56 55 53 53 52 50 47 46 44 42 40 38 36 34 32 29 28 28 28 28 29 28 27 25 24
23 25 28 30 33 36 39 43 45 48 50 53 55 56 56 57 57 56 55 55 53 52 52 50 48 47 45 43 40 38 36 33 31 28 25 24 23 23 23 24 24 24 23 22

GEFSCGP_500_meanwind_072.txt.gz
Wind_Speed
17 16 17 18 18 18 19 20 21 22 23 24 25 25 24 24 25 26 27 27 29 31 32 32 32 34 35 36 38 38 38 37 35 33 32 31 29 29 29 30 30 30 29 30
14 15 16 16 16 17 18 19 20 22 23 24 25 24 24 25 26 27 28 30 32 33 34 35 37 38 38 38 39 39 39 38 35 33 33 32 30 29 27 27 27 28 27 27
13 14 14 15 15 16 16 17 18 19 20 22 24 24 24 25 26 28 29 31 33 35 36 38 40 40 40 39 38 39 40 38 36 35 33 31 30 29 29 28 27 27 27 27
11 12 13 13 13 14 14 15 16 17 18 19 21 23 23 25 27 28 30 31 32 34 36 38 39 39 39 38 38 40 39 38 38 36 34 33 33 32 32 31 28 27 27 28
9 9 10 10 11 12 12 13 14 15 16 16 18 20 20 23 26 27 29 30 30 31 31 32 33 35 36 36 37 39 39 39 39 38 37 37 36 35 35 34 32 32 31 31
6 7 8 9 10 11 11 12 13 13 14 15 16 18 19 20 21 23 24 26 27 28 28 28 30 32 34 35 37 38 40 40 41 41 42 41 40 39 39 38 37 37 37 36
3 5 7 9 10 10 11 12 13 13 13 14 15 17 17 18 20 22 23 25 27 28 29 30 31 32 33 35 37 39 40 41 43 44 45 45 44 43 43 43 43 43 42 42
2 3 5 7 9 10 11 13 14 15 15 15 16 17 18 19 22 24 25 26 28 30 31 32 34 35 37 39 40 42 44 45 46 48 48 48 48 47 47 47 48 47 47 47
2 2 5 7 9 11 12 13 15 17 17 17 18 19 20 22 24 25 26 28 30 32 34 36 37 38 40 42 43 45 47 48 49 51 52 52 52 53 53 52 52 52 52 51
4 4 6 8 10 11 12 14 16 18 20 21 21 21 23 25 26 28 30 32 34 36 38 39 40 41 43 45 46 47 49 50 51 53 54 55 56 56 56 56 56 56 56 56
7 7 8 9 10 11 12 14 16 18 21 23 24 24 25 27 30 32 34 36 38 39 41 43 44 45 47 48 50 51 52 53 54 55 56 57 57 58 58 58 59 59 59 59
8 9 9 10 10 11 13 15 17 19 21 23 25 27 28 31 33 35 37 39 41 43 44 46 48 49 51 52 53 54 56 57 58 59 59 59 59 59 59 60 60 60 60 61
9 9 9 10 11 12 14 16 18 20 22 24 26 28 31 33 35 37 39 41 43 46 48 49 51 52 54 55 57 58 60 60 61 61 61 60 59 58 58 58 58 57 57 58
9 10 10 11 12 14 15 17 19 21 22 25 27 30 32 35 37 39 42 44 46 49 50 52 53 54 56 58 59 60 60 61 61 61 61 60 59 58 56 54 53 52 51 51
11 11 12 13 13 14 16 18 20 22 24 27 29 32 34 37 39 41 44 47 49 50 51 52 54 56 58 59 59 60 61 61 61 61 60 59 57 55 53 50 48 47 46 45
12 13 13 13 14 15 17 19 22 24 26 28 31 33 36 38 41 44 47 49 50 51 52 53 55 57 57 58 59 61 61 61 61 60 59 57 55 53 51 49 47 44 42 41
11 13 14 15 16 17 19 21 23 25 28 31 33 36 38 40 42 47 50 50 51 52 53 55 56 56 57 59 60 61 60 59 59 58 57 55 53 50 48 47 44 42 40 39
11 12 14 16 18 19 22 24 26 27 30 32 35 39 41 43 45 49 51 51 52 53 54 55 55 56 58 59 60 59 59 58 57 56 54 52 49 47 46 44 42 41 39 38
12 14 16 18 19 21 23 26 28 31 32 35 38 41 43 46 47 47 50 51 52 53 54 55 56 58 59 59 59 58 57 55 53 52 50 47 45 44 42 41 40 39 38 36
14 16 18 20 21 23 25 27 30 33 35 38 41 44 46 49 50 50 50 51 52 53 55 56 57 58 58 58 58 57 54 52 50 49 47 45 43 41 39 38 37 36 36 35
16 17 19 20 22 24 26 29 32 35 38 40 43 45 48 50 52 53 53 52 53 55 56 56 57 58 57 57 56 55 52 50 49 47 45 42 39 37 35 34 33 32 32 32
17 19 20 21 23 25 27 30 32 35 38 41 44 47 49 51 52 53 53 53 54 55 55 56 56 56 56 55 55 54 51 49 46 45 42 38 35 33 32 31 29 28 28 28
18 20 21 22 24 26 28 31 33 36 40 43 46 48 50 52 53 53 53 54 54 54 54 54 54 54 54 54 54 52 50 47 43 41 38 34 30 28 27 26 24 24 25 25
19 20 21 22 24 26 29 31 34 37 41 44 47 50 51 52 53 54 53 52 52 53 53 52 52 53 53 53 52 50 48 44 40 37 33 29 26 23 21 19 18 18 19 21
20 20 21 23 25 27 29 32 35 38 41 45 48 50 52 52 53 53 52 51 52 51 51 51 52 53 53 52 50 49 45 41 37 33 29 25 22 19 16 14 12 13 15 17
20 21 22 24 26 28 30 33 36 38 42 45 48 50 52 53 53 52 50 50 51 50 50 50 51 52 52 51 49 47 43 39 36 31 27 23 18 15 12 10 9 9 11 13